Stations météo

Publicité
Lorient Lan Bihoue, France (7205): Température de l'air & dewpoint: 22.05.2018 11:00:00 - 28.05.2018 11:00:00 (CEST)Lorient Lan Bihoue, France (7205): Température de l'air 5cm: 22.05.2018 11:00:00 - 28.05.2018 11:00:00 (CEST)Lorient Lan Bihoue, France (7205): Température de l'air -20cm: 22.05.2018 11:00:00 - 28.05.2018 11:00:00 (CEST)Lorient Lan Bihoue, France (7205): Vitesse du vent & gusts: 22.05.2018 11:00:00 - 28.05.2018 11:00:00 (CEST)Lorient Lan Bihoue, France (7205): Direction du vent: 22.05.2018 11:00:00 - 28.05.2018 11:00:00 (CEST)Lorient Lan Bihoue, France (7205): reduced air pressure: 22.05.2018 11:00:00 - 28.05.2018 11:00:00 (CEST)Lorient Lan Bihoue, France (7205): visibility: 22.05.2018 11:00:00 - 28.05.2018 11:00:00 (CEST)Lorient Lan Bihoue, France (7205): Ensoleillement: 22.05.2018 11:00:00 - 28.05.2018 11:00:00 (CEST)Lorient Lan Bihoue, France (7205): Quantités de précipitations: 22.05.2018 11:00:00 - 28.05.2018 11:00:00 (CEST)
Date & Time tt [°C] td [°C] tt 5cm [°C] tt -20cm [°C] ff [km/h] ff [knt] fx [km/h] fx [knt] dd ppp [hPa] vv [km] sd [min] rr [mm]
28.05.2018 11:00:00 18,2 15,6 21,9 17,7 14 8 21 12 N 1017,2 15 12 0,0
28.05.2018 10:00:00 16,5 15,2 18,1 17,8 10 5 16 9 NNW 1017,2 11 6 0,2
28.05.2018 09:00:00 15,1 14,9 15,4 17,9 9 5 16 9 N 1017,4 4,1 9 0,0
28.05.2018 08:00:00 14,9 14,9 11,2 18,0 6 3 11 6 NNE 1017,3 2,2 60 0,0
28.05.2018 07:00:00 13,2 13,0 9,2 18,1 7 4 10 6 NNE 1016,6 1,8 10 0,0
28.05.2018 06:00:00 13,3 12,8 9,7 18,2 4 2 9 5 NNW 1016,1 0,6 0 0,0
28.05.2018 05:00:00 14,5 13,9 11,5 18,3 3 2 6 4 NNW 1016,0 3,4 0 0,0
28.05.2018 04:00:00 15,5 15,0 14,9 18,3 2 1 7 4 N 1016,6 7 0 0,0
28.05.2018 03:00:00 15,5 15,0 14,1 18,4 4 2 8 4 NW 1016,6 6 0 0,0
28.05.2018 02:00:00 15,6 14,6 14,1 18,5 4 2 7 4 W 1017,0 10 0 0,0
28.05.2018 01:00:00 16,1 15,1 16,0 18,5 4 2 7 4 W 1017,0 12 0 0,0
28.05.2018 00:00:00 16,3 15,5 16,0 18,6 0 0 7 4 N 1016,9 8 0 0,0
27.05.2018 23:00:00 16,2 15,4 14,4 18,6 2 1 10 6 WSW 1016,4 9 0 0,0
27.05.2018 22:00:00 15,9 14,4 14,7 18,6 7 4 12 7 SW 1015,8 20 21 0,0
27.05.2018 21:00:00 17,7 14,6 19,7 18,5 10 5 14 8 SW 1015,5 19 58 0,0
27.05.2018 20:00:00 18,0 14,5 20,7 18,4 10 6 18 10 W 1015,1 42 51 0,0
27.05.2018 19:00:00 18,4 14,7 22,2 18,3 14 7 21 12 WSW 1015,0 36 44 0,0
27.05.2018 18:00:00 19,6 14,8 27,1 18,1 11 6 20 11 WSW 1015,1 38 44 0,0
27.05.2018 17:00:00 19,9 15,1 27,1 17,9 11 6 27 14 WSW 1015,1 19 20 0,0
27.05.2018 16:00:00 20,6 14,9 28,3 17,8 14 8 29 15 SW 1014,9 20 41 0,0
27.05.2018 15:00:00 22,0 15,8 28,2 17,5 16 9 26 14 SW 1014,8 19 52 0,0
27.05.2018 14:00:00 21,0 15,5 29,9 17,4 16 8 24 13 S 1014,5 40 55 0,0
27.05.2018 13:00:00 20,0 14,6 29,7 17,3 16 9 26 14 SSE 1014,5 35 57 0,0
27.05.2018 12:00:00 20,1 15,1 26,2 17,2 12 6 19 11 SSE 1014,2 60 52 0,0
27.05.2018 11:00:00 18,9 16,3 21,1 17,2 14 8 23 13 SSE 1014,1 42 26 0,0
27.05.2018 10:00:00 18,0 16,3 18,9 17,2 18 10 32 17 SSE 1013,6 11 42 0,0
27.05.2018 09:00:00 16,8 16,5 16,3 17,2 19 10 32 17 SE 1012,9 8 7 0,0
27.05.2018 08:00:00 16,1 15,9 14,1 17,3 5 3 11 6 E 1012,6 3,4 3 -
27.05.2018 07:00:00 15,1 14,5 13,8 17,3 6 3 10 5 SE 1012,5 9 0 0,0
27.05.2018 06:00:00 15,5 14,7 14,3 17,4 6 3 13 7 S 1012,3 11 0 0,0
27.05.2018 05:00:00 15,7 15,2 15,5 17,4 11 6 18 10 SSE 1012,5 5 0 0,0
27.05.2018 04:00:00 16,0 15,7 15,5 17,5 13 7 19 11 SSE 1012,5 5 0 0,0
27.05.2018 03:00:00 16,1 15,5 15,9 17,5 10 6 19 10 S 1012,4 6 0 0,0
27.05.2018 02:00:00 16,3 16,0 16,1 17,6 13 7 21 11 SSE 1012,5 3,6 0 0,0
27.05.2018 01:00:00 16,3 15,7 16,1 17,6 11 6 15 8 SSE 1012,6 5 0 0,0
27.05.2018 00:00:00 16,6 15,8 16,0 17,6 10 5 18 10 SSE 1012,5 4,7 0 0,0
26.05.2018 23:00:00 16,8 16,0 15,0 17,6 5 3 9 5 S 1012,3 4,9 0 0,0
26.05.2018 22:00:00 17,3 15,8 15,7 17,5 4 2 8 4 WSW 1011,8 4,2 0 0,0
26.05.2018 21:00:00 18,9 15,8 19,5 17,5 6 3 10 6 SSE 1011,5 9 16 0,0
26.05.2018 20:00:00 19,7 16,0 21,5 17,4 2 1 9 5 SE 1011,3 8 17 0,0
26.05.2018 19:00:00 19,4 16,2 19,6 17,4 6 3 14 7 E 1011,2 6 21 0,0
26.05.2018 18:00:00 17,9 16,1 18,6 17,3 10 5 20 11 ENE 1012,0 6 0 0,0
26.05.2018 17:00:00 18,5 15,9 22,6 17,2 11 6 24 13 ENE 1012,1 8 26 0,0
26.05.2018 16:00:00 18,1 16,3 18,1 17,2 17 9 30 16 NE 1012,2 8 2 0,0
26.05.2018 15:00:00 17,0 16,2 16,6 17,2 21 12 31 17 NE 1012,6 4,4 0 -
26.05.2018 14:00:00 16,8 15,8 15,9 17,3 10 5 22 12 NNE 1012,7 7 0 3,4
26.05.2018 13:00:00 17,1 14,9 16,0 17,2 10 6 24 13 ENE 1013,4 11 0 0,2
26.05.2018 12:00:00 17,5 14,9 19,1 17,2 11 6 19 10 N 1013,3 17 0 0,0
26.05.2018 11:00:00 16,6 14,6 16,3 17,2 11 6 19 10 NE 1014,0 17 0 0,0
26.05.2018 10:00:00 15,5 13,7 16,4 17,2 12 6 26 14 NE 1014,5 14 0 0,0
26.05.2018 09:00:00 15,5 13,9 14,9 17,4 22 12 29 16 NE 1014,0 11 35 0,0
26.05.2018 08:00:00 14,7 13,9 13,9 17,4 14 7 21 12 NE 1014,1 8 48 0,0
26.05.2018 07:00:00 13,8 13,6 13,2 17,5 15 8 23 13 NNE 1014,2 4,2 8 0,0
26.05.2018 06:00:00 13,6 13,4 12,3 17,6 16 9 24 13 NE 1014,8 3,9 0 0,0
26.05.2018 05:00:00 13,4 12,9 12,4 17,7 14 8 21 11 NE 1014,9 3,0 0 0,0
26.05.2018 04:00:00 13,7 13,4 12,2 17,8 14 8 21 11 NE 1015,3 2,4 0 0,0
26.05.2018 03:00:00 13,9 13,1 12,7 17,9 13 7 18 10 NE 1015,6 2,7 0 0,0
26.05.2018 02:00:00 14,0 13,2 13,0 18,0 11 6 17 9 NE 1016,1 2,9 0 0,0
26.05.2018 01:00:00 14,3 13,2 11,8 18,1 8 5 14 8 NNE 1016,2 2,8 0 0,0
26.05.2018 00:00:00 15,1 13,6 13,1 18,1 10 5 16 9 NE 1016,1 6 0 0,0
25.05.2018 23:00:00 16,0 14,2 14,3 18,2 10 6 18 10 NNE 1016,4 8 0 0,0
25.05.2018 22:00:00 16,9 15,1 15,2 18,2 10 5 15 8 NNE 1015,8 9 14 0,0
25.05.2018 21:00:00 18,5 15,2 16,8 18,1 10 5 20 11 ENE 1015,5 12 27 0,0
25.05.2018 20:00:00 18,4 15,6 17,3 18,0 12 7 24 13 E 1015,3 12 32 0,4
25.05.2018 19:00:00 21,1 14,3 24,0 17,9 5 3 15 8 W 1015,3 11 44 -
25.05.2018 18:00:00 20,9 15,0 28,5 17,7 10 5 23 12 W 1015,5 9 60 0,0
25.05.2018 17:00:00 21,6 15,0 32,0 17,4 13 7 22 12 SW 1015,2 11 60 0,0
25.05.2018 16:00:00 22,4 15,5 24,8 17,3 12 7 21 11 W 1015,5 11 31 0,0
25.05.2018 15:00:00 22,2 14,3 27,2 17,1 11 6 27 14 NE 1015,6 14 27 0,0
25.05.2018 14:00:00 22,0 14,6 28,2 17,0 16 9 29 16 E 1015,9 14 20 0,0
25.05.2018 13:00:00 21,9 15,0 28,0 16,8 18 10 27 15 ENE 1016,0 14 58 0,0
25.05.2018 12:00:00 19,8 13,7 29,5 16,8 15 8 26 14 NNE 1016,4 11 56 0,0
25.05.2018 11:00:00 18,7 14,0 24,1 16,8 15 8 26 14 NNE 1016,6 10 60 0,0
25.05.2018 10:00:00 16,6 13,5 17,5 16,9 14 8 28 15 NNE 1016,8 9 51 0,0
25.05.2018 09:00:00 14,0 12,0 13,2 17,0 18 10 26 14 NE 1017,0 6 26 0,0
25.05.2018 08:00:00 12,4 11,6 11,7 17,1 18 10 27 15 NE 1017,1 4,4 0 0,0
25.05.2018 07:00:00 11,8 11,3 11,0 17,2 17 9 25 14 NNE 1016,9 3,0 0 -
25.05.2018 06:00:00 11,4 10,9 10,2 17,3 15 8 21 12 NE 1016,8 2,9 0 0,0
25.05.2018 05:00:00 11,0 10,5 9,7 17,4 15 8 22 12 NNE 1016,8 3,0 0 0,0
25.05.2018 04:00:00 11,0 10,4 9,7 17,5 13 7 20 11 NNE 1017,1 3,7 0 0,0
25.05.2018 03:00:00 11,6 10,7 10,4 17,7 12 6 19 10 NNE 1017,3 4,1 0 0,0
25.05.2018 02:00:00 12,0 10,7 10,6 17,8 14 7 22 12 NNE 1017,4 5 0 0,0
25.05.2018 01:00:00 13,2 11,1 11,2 17,9 11 6 25 13 NE 1017,6 6 0 0,0
25.05.2018 00:00:00 14,5 12,0 12,7 17,9 14 8 28 15 NNE 1017,6 7 0 0,0
24.05.2018 23:00:00 16,4 12,7 14,7 17,9 20 11 35 19 NE 1017,5 9 0 0,0
24.05.2018 22:00:00 17,8 13,5 14,2 17,9 8 5 18 10 N 1016,7 19 27 0,0
24.05.2018 21:00:00 19,4 14,2 18,2 17,8 9 5 16 9 SSW 1016,4 17 60 0,0
24.05.2018 20:00:00 21,2 14,1 22,5 17,6 11 6 25 13 SSW 1016,1 19 60 0,0
24.05.2018 19:00:00 20,6 14,5 24,8 17,4 16 9 26 14 W 1016,1 6 55 0,0
24.05.2018 18:00:00 22,1 14,7 26,9 17,2 18 10 24 13 WSW 1016,2 16 56 -
24.05.2018 17:00:00 22,5 14,1 27,6 17,1 10 6 21 11 SSW 1016,3 18 22 0,0
24.05.2018 16:00:00 24,1 13,9 27,6 16,9 6 4 16 9 W 1016,8 17 50 0,0
24.05.2018 15:00:00 21,2 13,6 27,3 16,7 6 4 20 11 N 1017,1 16 29 0,0
24.05.2018 14:00:00 21,0 14,2 28,9 16,6 10 5 22 12 NE 1017,7 12 39 0,0
24.05.2018 13:00:00 20,0 14,1 28,2 16,4 11 6 25 13 N 1018,0 12 53 0,0
24.05.2018 12:00:00 18,5 13,8 26,4 16,4 12 6 29 16 NNE 1018,2 9 58 0,0
24.05.2018 11:00:00 17,2 13,7 20,9 16,3 14 8 25 14 NNE 1018,4 8 56 0,0
24.05.2018 10:00:00 15,5 12,8 16,8 16,4 15 8 25 13 ENE 1018,5 7 55 0,0
24.05.2018 09:00:00 13,7 12,6 13,1 16,5 17 9 26 14 NE 1018,4 5 3 0,0
24.05.2018 08:00:00 12,6 12,0 10,4 16,6 12 7 18 10 NE 1018,2 4,3 38 0,0
24.05.2018 07:00:00 11,4 10,9 9,5 16,7 13 7 21 11 NE 1018,0 3,6 7 0,0
24.05.2018 06:00:00 11,3 10,7 9,9 16,8 14 7 24 13 NE 1017,8 3,1 0 0,0
24.05.2018 05:00:00 11,3 10,5 9,5 16,9 14 8 22 12 NE 1018,2 3,6 0 0,0
24.05.2018 04:00:00 11,3 10,2 9,4 17,0 12 7 22 12 NE 1018,4 4,1 0 0,0
24.05.2018 03:00:00 11,8 10,5 10,2 17,1 16 8 24 13 NE 1018,4 4,7 0 0,0
24.05.2018 02:00:00 12,2 10,4 10,4 17,2 16 8 22 12 NE 1018,4 6 0 0,0
24.05.2018 01:00:00 12,6 10,1 10,9 17,3 14 8 30 16 NE 1019,0 8 0 0,0
24.05.2018 00:00:00 13,5 10,1 11,7 17,4 18 10 33 18 NE 1019,6 11 0 0,0
23.05.2018 23:00:00 14,6 9,6 13,1 17,5 19 11 33 18 NNE 1019,5 18 0 0,0
23.05.2018 22:00:00 16,1 9,0 14,4 17,5 24 13 36 19 NNE 1019,1 27 26 0,0
23.05.2018 21:00:00 18,7 8,1 17,2 17,4 23 12 42 23 NE 1018,4 44 60 0,0
23.05.2018 20:00:00 20,8 7,8 20,6 17,3 21 12 38 20 NE 1018,0 48 60 0,0
23.05.2018 19:00:00 22,6 8,7 24,3 17,2 26 14 36 19 NNE 1017,6 20 54 0,0
23.05.2018 18:00:00 23,6 10,6 25,8 17,0 20 11 32 18 NNE 1017,6 20 55 0,0
23.05.2018 17:00:00 23,7 11,4 27,4 16,9 18 10 36 19 E 1018,1 20 49 0,0
23.05.2018 16:00:00 23,2 10,3 28,3 16,6 20 11 35 19 NE 1018,5 20 53 0,0
23.05.2018 15:00:00 23,9 9,5 34,0 16,4 24 13 37 20 NNE 1018,7 20 60 0,0
23.05.2018 14:00:00 23,5 10,5 30,8 16,3 26 14 42 23 NE 1019,1 20 60 0,0
23.05.2018 13:00:00 22,6 11,9 29,3 16,2 23 12 39 21 NE 1019,4 20 57 0,0
23.05.2018 12:00:00 22,2 11,9 30,5 16,1 25 14 39 21 NE 1019,5 20 60 0,0
23.05.2018 11:00:00 20,9 13,3 26,3 16,1 15 8 26 14 ENE 1019,8 19 60 0,0
23.05.2018 10:00:00 19,2 12,9 21,0 16,1 18 10 29 16 NE 1019,8 14 60 0,0
23.05.2018 09:00:00 16,2 11,1 13,4 16,2 13 7 18 10 ENE 1019,9 14 58 0,0
23.05.2018 08:00:00 13,4 9,8 8,4 16,3 9 5 15 8 NE 1019,5 15 60 0,0
23.05.2018 07:00:00 10,5 8,3 8,4 16,4 12 6 18 10 NE 1019,0 13 6 0,0
23.05.2018 06:00:00 10,6 8,4 8,8 16,5 9 5 21 11 NNE 1018,6 15 0 0,0
23.05.2018 05:00:00 11,4 8,6 9,5 16,6 15 8 19 10 NNE 1018,5 14 0 0,0
23.05.2018 04:00:00 11,5 9,1 10,0 16,8 13 7 21 11 NNE 1018,5 13 0 0,0
23.05.2018 03:00:00 12,6 9,2 10,5 16,9 16 9 24 13 NNE 1018,7 16 0 0,0
23.05.2018 02:00:00 12,9 9,2 9,2 16,9 14 8 19 11 NNE 1018,9 19 0 0,0
23.05.2018 01:00:00 12,1 8,6 9,4 17,1 10 6 16 9 NNE 1019,0 30 0 0,0
23.05.2018 00:00:00 14,4 9,0 10,3 17,1 10 6 16 9 NE 1019,0 34 0 0,0
22.05.2018 23:00:00 15,3 8,8 11,1 17,1 9 5 16 9 NNE 1018,5 42 0 0,0
22.05.2018 22:00:00 17,6 9,0 13,5 17,1 12 6 27 15 NE 1017,6 44 25 0,0
22.05.2018 21:00:00 20,1 8,7 18,4 17,1 14 7 25 13 N 1016,8 51 41 0,0
22.05.2018 20:00:00 21,8 10,3 20,4 17,0 13 7 24 13 N 1016,0 46 29 0,0
22.05.2018 19:00:00 22,2 10,3 22,1 16,9 14 8 24 13 N 1015,8 40 8 0,0
22.05.2018 18:00:00 21,5 12,3 18,4 16,8 11 6 22 12 NNE 1015,7 32 2 0,2
22.05.2018 17:00:00 22,2 11,9 20,6 16,6 14 8 27 15 N 1015,6 17 8 0,0
22.05.2018 16:00:00 23,6 11,6 25,1 16,4 10 6 25 14 N 1015,8 24 20 0,0
22.05.2018 15:00:00 23,8 11,8 29,2 16,3 11 6 30 16 NE 1015,7 36 49 0,0
22.05.2018 14:00:00 23,7 11,1 26,3 16,1 16 9 31 17 NNE 1015,7 19 55 0,0
22.05.2018 13:00:00 21,7 11,4 25,5 16,1 13 7 21 12 NNE 1016,0 48 27 0,0
22.05.2018 12:00:00 21,3 11,9 24,6 16,1 7 4 19 11 N 1015,9 37 52 0,0
22.05.2018 11:00:00 18,0 12,2 19,1 16,0 7 4 16 8 N 1016,1 17 7 0,0

tt = Température de l'air
td = dewpoint
tt 5cm = Température de l'air 5cm
tt -20cm = Température de l'air -20cm
ff = Vitesse du vent
fx = gusts
dd = Direction du vent
ppp = reduced air pressure
vv = visibility
sd = Ensoleillement
rr = Quantités de précipitations

stations d'obs. à proximité